Time,TemperatureF,DewpointF,PressureIn,WindDirection,WindDirectionDegrees,WindSpeedMPH,WindSpeedGustMPH,Humidity,HourlyPrecipIn,Conditions,Clouds,dailyrainin,SolarRadiationWatts/m^2,SoftwareType,DateUTC
2013-11-15 00:00:00,30.7,25.6,-100.00,SSW,213,2.9,6.3,81,0.00,,,-99.99,1.0,HOBO +U30 +Weather +,2013-11-15 07:00:00,
2013-11-15 00:05:00,29.9,25.2,-100.00,SSW,195,4.0,5.1,82,0.00,,,-99.99,1.0,HOBO +U30 +Weather +,2013-11-15 07:05:00,
2013-11-15 00:10:00,29.7,25.2,-100.00,SSW,197,4.0,5.1,83,0.00,,,-99.99,1.0,HOBO +U30 +Weather +,2013-11-15 07:10:00,
2013-11-15 00:15:00,29.5,25.1,-100.00,SSW,198,4.5,5.6,83,0.00,,,-99.99,1.0,HOBO +U30 +Weather +,2013-11-15 07:15:00,
2013-11-15 00:20:00,29.5,25.2,-100.00,SSW,192,4.5,5.6,83,0.00,,,-99.99,1.0,HOBO +U30 +Weather +,2013-11-15 07:20:00,
2013-11-15 00:25:00,29.3,25.1,-100.00,SSW,194,5.1,5.6,84,0.00,,,-99.99,1.0,HOBO +U30 +Weather +,2013-11-15 07:25:00,
2013-11-15 00:30:00,29.3,25.1,-100.00,SSW,194,5.1,7.4,84,0.00,,,-99.99,1.0,HOBO +U30 +Weather +,2013-11-15 07:30:00,
2013-11-15 00:35:00,29.4,25.2,-100.00,SSW,201,4.5,5.6,84,0.00,,,-99.99,1.0,HOBO +U30 +Weather +,2013-11-15 07:35:00,
2013-11-15 00:40:00,29.6,25.3,-100.00,SSW,206,3.4,5.1,83,0.00,,,-99.99,1.0,HOBO +U30 +Weather +,2013-11-15 07:40:00,
2013-11-15 00:45:00,29.5,25.2,-100.00,SSW,205,4.0,5.6,83,0.00,,,-99.99,1.0,HOBO +U30 +Weather +,2013-11-15 07:45:00,
2013-11-15 00:50:00,29.6,25.2,-100.00,SSW,209,3.4,5.6,83,0.00,,,-99.99,1.0,HOBO +U30 +Weather +,2013-11-15 07:50:00,
2013-11-15 01:02:00,29.8,25.3,-100.00,SSW,212,3.4,5.6,83,0.00,,,-99.99,1.0,HOBO +U30 +Weather +,2013-11-15 08:02:00,
2013-11-15 01:05:00,29.8,25.3,-100.00,SSW,212,2.9,5.1,83,0.00,,,-99.99,1.0,HOBO +U30 +Weather +,2013-11-15 08:05:00,
2013-11-15 01:10:00,29.9,25.2,-100.00,SSW,211,2.9,6.3,82,0.00,,,-99.99,1.0,HOBO +U30 +Weather +,2013-11-15 08:10:00,
2013-11-15 01:15:00,29.6,25.1,-100.00,SW,215,4.0,6.7,83,0.00,,,-99.99,1.0,HOBO +U30 +Weather +,2013-11-15 08:15:00,
2013-11-15 01:20:00,29.9,25.3,-100.00,SW,226,2.2,6.3,82,0.00,,,-99.99,1.0,HOBO +U30 +Weather +,2013-11-15 08:20:00,
2013-11-15 01:25:00,30.0,25.3,-100.00,SW,219,2.2,5.6,82,0.00,,,-99.99,1.0,HOBO +U30 +Weather +,2013-11-15 08:25:00,
2013-11-15 01:30:00,29.9,25.1,-100.00,SW,233,1.8,3.4,82,0.00,,,-99.99,1.0,HOBO +U30 +Weather +,2013-11-15 08:30:00,
2013-11-15 01:35:00,29.8,25.0,-100.00,SW,232,1.1,4.0,82,0.00,,,-99.99,1.0,HOBO +U30 +Weather +,2013-11-15 08:35:00,
2013-11-15 01:40:00,28.7,24.3,-100.00,South,188,4.0,5.6,83,0.00,,,-99.99,1.0,HOBO +U30 +Weather +,2013-11-15 08:40:00,
2013-11-15 01:45:00,28.2,24.3,-100.00,South,187,5.1,6.7,85,0.00,,,-99.99,1.0,HOBO +U30 +Weather +,2013-11-15 08:45:00,
2013-11-15 01:50:00,28.1,24.4,-100.00,SSW,194,4.0,5.6,85,0.00,,,-99.99,1.0,HOBO +U30 +Weather +,2013-11-15 08:50:00,
2013-11-15 01:55:00,28.2,24.6,-100.00,SSW,201,3.4,4.5,86,0.00,,,-99.99,1.0,HOBO +U30 +Weather +,2013-11-15 08:55:00,
2013-11-15 02:00:00,28.2,24.5,-100.00,SSW,198,3.4,5.1,85,0.00,,,-99.99,1.0,HOBO +U30 +Weather +,2013-11-15 09:00:00,
2013-11-15 02:05:00,28.4,24.7,-100.00,SSW,198,4.0,6.3,86,0.00,,,-99.99,1.0,HOBO +U30 +Weather +,2013-11-15 09:05:00,
2013-11-15 02:10:00,28.3,24.6,-100.00,SSW,198,4.5,6.7,86,0.00,,,-99.99,1.0,HOBO +U30 +Weather +,2013-11-15 09:10:00,
2013-11-15 02:15:00,28.3,24.7,-100.00,SSW,204,2.9,5.1,86,0.00,,,-99.99,1.0,HOBO +U30 +Weather +,2013-11-15 09:15:00,
2013-11-15 02:20:00,28.5,24.8,-100.00,SSW,206,0.7,2.9,86,0.00,,,-99.99,1.0,HOBO +U30 +Weather +,2013-11-15 09:20:00,
2013-11-15 02:25:00,28.4,24.7,-100.00,SSW,212,1.1,3.4,85,0.00,,,-99.99,1.0,HOBO +U30 +Weather +,2013-11-15 09:25:00,
2013-11-15 02:30:00,28.7,25.0,-100.00,SW,219,1.1,3.4,85,0.00,,,-99.99,1.0,HOBO +U30 +Weather +,2013-11-15 09:30:00,
2013-11-15 02:35:00,28.5,24.6,-100.00,SSW,211,1.8,4.0,84,0.00,,,-99.99,1.0,HOBO +U30 +Weather +,2013-11-15 09:35:00,
2013-11-15 02:40:00,28.3,24.5,-100.00,SSW,195,3.4,4.5,85,0.00,,,-99.99,1.0,HOBO +U30 +Weather +,2013-11-15 09:40:00,
2013-11-15 02:45:00,28.2,24.5,-100.00,SSW,198,3.4,5.1,85,0.00,,,-99.99,1.0,HOBO +U30 +Weather +,2013-11-15 09:45:00,
2013-11-15 02:50:00,28.3,24.6,-100.00,SSW,205,2.9,4.5,85,0.00,,,-99.99,1.0,HOBO +U30 +Weather +,2013-11-15 09:50:00,
2013-11-15 03:00:00,27.4,23.8,-100.00,South,190,3.4,5.1,86,0.00,,,-99.99,1.0,HOBO +U30 +Weather +,2013-11-15 10:00:00,
2013-11-15 03:05:00,27.1,23.9,-100.00,South,191,4.0,5.6,87,0.00,,,-99.99,1.0,HOBO +U30 +Weather +,2013-11-15 10:05:00,
2013-11-15 03:10:00,27.0,23.8,-100.00,SSW,197,4.0,5.1,87,0.00,,,-99.99,1.0,HOBO +U30 +Weather +,2013-11-15 10:10:00,
2013-11-15 03:15:00,26.9,23.8,-100.00,South,190,4.0,5.6,87,0.00,,,-99.99,1.0,HOBO +U30 +Weather +,2013-11-15 10:15:00,
2013-11-15 03:20:00,27.1,24.0,-100.00,SSW,194,3.4,5.6,88,0.00,,,-99.99,1.0,HOBO +U30 +Weather +,2013-11-15 10:20:00,
2013-11-15 03:25:00,27.0,23.9,-100.00,SSW,199,4.5,6.3,87,0.00,,,-99.99,1.0,HOBO +U30 +Weather +,2013-11-15 10:25:00,
2013-11-15 03:30:00,27.0,23.8,-100.00,SSW,202,4.0,6.3,87,0.00,,,-99.99,1.0,HOBO +U30 +Weather +,2013-11-15 10:30:00,
2013-11-15 03:35:00,26.7,23.7,-100.00,SSW,198,4.0,5.6,88,0.00,,,-99.99,1.0,HOBO +U30 +Weather +,2013-11-15 10:35:00,
2013-11-15 03:40:00,26.9,23.8,-100.00,SSW,204,3.4,5.1,88,0.00,,,-99.99,1.0,HOBO +U30 +Weather +,2013-11-15 10:40:00,
2013-11-15 03:45:00,27.0,24.0,-100.00,South,173,3.4,5.6,88,0.00,,,-99.99,1.0,HOBO +U30 +Weather +,2013-11-15 10:45:00,
2013-11-15 03:50:00,27.0,23.8,-100.00,South,173,2.9,5.6,87,0.00,,,-99.99,1.0,HOBO +U30 +Weather +,2013-11-15 10:50:00,
2013-11-15 03:55:00,27.6,24.5,-100.00,SSE,168,1.8,4.5,88,0.00,,,-99.99,1.0,HOBO +U30 +Weather +,2013-11-15 10:55:00,
2013-11-15 04:00:00,27.1,23.7,-100.00,South,178,1.1,4.0,86,0.00,,,-99.99,1.0,HOBO +U30 +Weather +,2013-11-15 11:00:00,
2013-11-15 04:05:00,27.3,23.8,-100.00,SSW,205,1.8,4.5,86,0.00,,,-99.99,1.0,HOBO +U30 +Weather +,2013-11-15 11:05:00,
2013-11-15 04:10:00,26.9,23.5,-100.00,SSW,211,1.8,3.4,86,0.00,,,-99.99,1.0,HOBO +U30 +Weather +,2013-11-15 11:10:00,
2013-11-15 04:15:00,27.2,23.9,-100.00,SSW,199,1.1,4.0,87,0.00,,,-99.99,1.0,HOBO +U30 +Weather +,2013-11-15 11:15:00,
2013-11-15 04:20:00,26.9,23.5,-100.00,SSW,198,2.2,4.0,86,0.00,,,-99.99,1.0,HOBO +U30 +Weather +,2013-11-15 11:20:00,
2013-11-15 04:25:00,26.7,23.5,-100.00,SSW,202,2.9,4.5,87,0.00,,,-99.99,1.0,HOBO +U30 +Weather +,2013-11-15 11:25:00,
2013-11-15 04:30:00,27.0,23.8,-100.00,SSW,205,2.2,4.5,87,0.00,,,-99.99,1.0,HOBO +U30 +Weather +,2013-11-15 11:30:00,
2013-11-15 04:35:00,26.7,23.4,-100.00,SSW,201,2.9,4.5,87,0.00,,,-99.99,1.0,HOBO +U30 +Weather +,2013-11-15 11:35:00,
2013-11-15 04:40:00,26.4,23.3,-100.00,SSW,194,2.9,4.0,87,0.00,,,-99.99,1.0,HOBO +U30 +Weather +,2013-11-15 11:40:00,
2013-11-15 04:45:00,26.4,23.3,-100.00,SSW,194,4.0,5.6,88,0.00,,,-99.99,1.0,HOBO +U30 +Weather +,2013-11-15 11:45:00,
2013-11-15 04:58:00,26.4,23.4,-100.00,SSW,197,4.5,5.6,88,0.00,,,-99.99,1.0,HOBO +U30 +Weather +,2013-11-15 11:58:00,
2013-11-15 05:00:00,26.2,23.4,-100.00,SSW,204,2.9,5.6,89,0.00,,,-99.99,1.0,HOBO +U30 +Weather +,2013-11-15 12:00:00,
2013-11-15 05:05:00,26.8,24.0,-100.00,SSW,209,1.8,4.0,89,0.00,,,-99.99,1.0,HOBO +U30 +Weather +,2013-11-15 12:05:00,
2013-11-15 05:10:00,26.6,23.6,-100.00,SSW,212,2.9,4.5,88,0.00,,,-99.99,1.0,HOBO +U30 +Weather +,2013-11-15 12:10:00,
2013-11-15 05:15:00,26.9,23.7,-100.00,SSW,213,2.9,5.1,87,0.00,,,-99.99,1.0,HOBO +U30 +Weather +,2013-11-15 12:15:00,
2013-11-15 05:20:00,26.7,23.4,-100.00,SSW,211,4.0,6.3,87,0.00,,,-99.99,1.0,HOBO +U30 +Weather +,2013-11-15 12:20:00,
2013-11-15 05:25:00,26.7,23.5,-100.00,SSW,211,5.1,7.4,87,0.00,,,-99.99,1.0,HOBO +U30 +Weather +,2013-11-15 12:25:00,
2013-11-15 05:30:00,27.2,23.9,-100.00,SSW,211,5.6,7.4,87,0.00,,,-99.99,1.0,HOBO +U30 +Weather +,2013-11-15 12:30:00,
2013-11-15 05:35:00,27.3,23.8,-100.00,SW,216,6.3,8.5,86,0.00,,,-99.99,1.0,HOBO +U30 +Weather +,2013-11-15 12:35:00,
2013-11-15 05:40:00,27.4,23.7,-100.00,SSW,213,5.1,7.8,86,0.00,,,-99.99,1.0,HOBO +U30 +Weather +,2013-11-15 12:40:00,
2013-11-15 05:45:00,27.2,23.6,-100.00,SSW,209,4.5,7.4,86,0.00,,,-99.99,1.0,HOBO +U30 +Weather +,2013-11-15 12:45:00,
2013-11-15 05:50:00,26.9,23.4,-100.00,SSW,209,4.0,6.3,86,0.00,,,-99.99,1.0,HOBO +U30 +Weather +,2013-11-15 12:50:00,
2013-11-15 05:55:00,26.8,23.4,-100.00,SSW,212,4.5,7.4,86,0.00,,,-99.99,1.0,HOBO +U30 +Weather +,2013-11-15 12:55:00,
2013-11-15 06:00:00,26.7,23.4,-100.00,SSW,213,4.0,6.7,86,0.00,,,-99.99,1.0,HOBO +U30 +Weather +,2013-11-15 13:00:00,
2013-11-15 06:05:00,26.8,23.4,-100.00,SW,215,5.1,7.4,86,0.00,,,-99.99,1.0,HOBO +U30 +Weather +,2013-11-15 13:05:00,
2013-11-15 06:10:00,26.0,22.8,-100.00,SSW,199,4.5,7.4,87,0.00,,,-99.99,1.0,HOBO +U30 +Weather +,2013-11-15 13:10:00,
2013-11-15 06:15:00,26.3,23.3,-100.00,SW,219,2.9,6.3,88,0.00,,,-99.99,1.0,HOBO +U30 +Weather +,2013-11-15 13:15:00,
2013-11-15 06:20:00,26.9,23.5,-100.00,SW,232,2.9,5.6,87,0.00,,,-99.99,1.0,HOBO +U30 +Weather +,2013-11-15 13:20:00,
2013-11-15 06:25:00,26.9,23.5,-100.00,WSW,244,2.9,5.6,87,0.00,,,-99.99,1.0,HOBO +U30 +Weather +,2013-11-15 13:25:00,
2013-11-15 06:30:00,26.8,23.5,-100.00,WSW,248,4.0,6.3,87,0.00,,,-99.99,1.0,HOBO +U30 +Weather +,2013-11-15 13:30:00,
2013-11-15 06:35:00,26.6,23.4,-100.00,WSW,254,3.4,6.3,87,0.00,,,-99.99,1.0,HOBO +U30 +Weather +,2013-11-15 13:35:00,
2013-11-15 06:40:00,26.4,23.2,-100.00,WSW,250,1.1,4.0,87,0.00,,,-99.99,1.0,HOBO +U30 +Weather +,2013-11-15 13:40:00,
2013-11-15 06:45:00,26.1,22.9,-100.00,WSW,250,0.7,2.2,87,0.00,,,-99.99,1.0,HOBO +U30 +Weather +,2013-11-15 13:45:00,
2013-11-15 06:55:00,26.3,22.9,-100.00,WSW,237,0.7,4.5,86,0.00,,,-99.99,1.0,HOBO +U30 +Weather +,2013-11-15 13:55:00,
2013-11-15 07:00:00,25.3,22.5,-100.00,South,184,5.1,7.4,88,0.00,,,-99.99,1.0,HOBO +U30 +Weather +,2013-11-15 14:00:00,
2013-11-15 07:05:00,25.3,22.5,-100.00,South,173,5.6,8.5,89,0.00,,,-99.99,2.0,HOBO +U30 +Weather +,2013-11-15 14:05:00,
2013-11-15 07:10:00,24.9,22.2,-100.00,South,174,4.5,6.7,89,0.00,,,-99.99,3.0,HOBO +U30 +Weather +,2013-11-15 14:10:00,
2013-11-15 07:15:00,24.7,22.2,-100.00,South,177,4.0,5.6,89,0.00,,,-99.99,4.0,HOBO +U30 +Weather +,2013-11-15 14:15:00,
2013-11-15 07:20:00,25.2,22.9,-100.00,South,187,4.0,5.6,90,0.00,,,-99.99,7.0,HOBO +U30 +Weather +,2013-11-15 14:20:00,
2013-11-15 07:25:00,25.8,23.4,-100.00,South,187,4.5,6.3,90,0.00,,,-99.99,8.0,HOBO +U30 +Weather +,2013-11-15 14:25:00,
2013-11-15 07:30:00,25.6,23.1,-100.00,South,178,4.5,6.3,90,0.00,,,-99.99,11.0,HOBO +U30 +Weather +,2013-11-15 14:30:00,
2013-11-15 07:35:00,26.2,23.6,-100.00,South,191,3.4,5.6,89,0.00,,,-99.99,13.0,HOBO +U30 +Weather +,2013-11-15 14:35:00,
2013-11-15 07:40:00,26.3,23.6,-100.00,SSW,195,4.0,5.6,89,0.00,,,-99.99,42.0,HOBO +U30 +Weather +,2013-11-15 14:40:00,
2013-11-15 07:45:00,26.8,23.9,-100.00,SSW,195,4.5,6.7,88,0.00,,,-99.99,32.0,HOBO +U30 +Weather +,2013-11-15 14:45:00,
2013-11-15 07:55:00,26.9,23.8,-100.00,SSW,199,2.9,6.3,87,0.00,,,-99.99,33.0,HOBO +U30 +Weather +,2013-11-15 14:55:00,
2013-11-15 08:00:00,26.9,23.7,-100.00,SSW,192,4.0,5.6,87,0.00,,,-99.99,102.0,HOBO +U30 +Weather +,2013-11-15 15:00:00,
2013-11-15 08:05:00,27.5,24.1,-100.00,SW,215,1.8,4.5,87,0.00,,,-99.99,41.0,HOBO +U30 +Weather +,2013-11-15 15:05:00,
2013-11-15 08:10:00,28.4,24.4,-100.00,SW,227,1.8,4.5,84,0.00,,,-99.99,77.0,HOBO +U30 +Weather +,2013-11-15 15:10:00,
2013-11-15 08:15:00,27.9,23.6,-100.00,SW,226,3.4,5.6,84,0.00,,,-99.99,144.0,HOBO +U30 +Weather +,2013-11-15 15:15:00,
2013-11-15 08:20:00,28.2,23.9,-100.00,SW,230,2.2,5.1,83,0.00,,,-99.99,156.0,HOBO +U30 +Weather +,2013-11-15 15:20:00,
2013-11-15 08:25:00,28.8,23.9,-100.00,WNW,299,1.1,4.0,81,0.00,,,-99.99,166.0,HOBO +U30 +Weather +,2013-11-15 15:25:00,
2013-11-15 08:30:00,28.2,23.8,-100.00,West,274,2.2,5.6,83,0.00,,,-99.99,178.0,HOBO +U30 +Weather +,2013-11-15 15:30:00,
2013-11-15 08:35:00,28.7,23.8,-100.00,WSW,253,2.2,5.1,81,0.00,,,-99.99,188.0,HOBO +U30 +Weather +,2013-11-15 15:35:00,
2013-11-15 08:40:00,28.9,23.7,-100.00,WSW,253,1.8,5.1,80,0.00,,,-99.99,197.0,HOBO +U30 +Weather +,2013-11-15 15:40:00,
2013-11-15 08:52:00,29.9,24.6,-100.00,WSW,237,2.2,5.6,80,0.00,,,-99.99,207.0,HOBO +U30 +Weather +,2013-11-15 15:52:00,
2013-11-15 08:55:00,32.6,26.4,-100.00,West,260,0.0,1.8,77,0.00,,,-99.99,227.0,HOBO +U30 +Weather +,2013-11-15 15:55:00,
2013-11-15 09:00:00,33.7,26.4,-100.00,SW,226,0.7,2.2,74,0.00,,,-99.99,237.0,HOBO +U30 +Weather +,2013-11-15 16:00:00,
2013-11-15 09:05:00,31.8,24.8,-100.00,SSW,197,2.9,5.1,74,0.00,,,-99.99,247.0,HOBO +U30 +Weather +,2013-11-15 16:05:00,
2013-11-15 09:10:00,31.7,24.9,-100.00,SSW,211,2.9,5.1,75,0.00,,,-99.99,256.0,HOBO +U30 +Weather +,2013-11-15 16:10:00,
2013-11-15 09:15:00,32.5,26.1,-100.00,SSW,197,3.4,6.3,77,0.00,,,-99.99,266.0,HOBO +U30 +Weather +,2013-11-15 16:15:00,
2013-11-15 09:20:00,33.1,25.7,-100.00,SSW,197,2.9,6.3,73,0.00,,,-99.99,272.0,HOBO +U30 +Weather +,2013-11-15 16:20:00,
2013-11-15 09:25:00,31.9,25.2,-100.00,SSW,194,4.5,6.7,75,0.00,,,-99.99,281.0,HOBO +U30 +Weather +,2013-11-15 16:25:00,
2013-11-15 09:30:00,32.2,25.8,-100.00,South,177,3.4,5.6,76,0.00,,,-99.99,289.0,HOBO +U30 +Weather +,2013-11-15 16:30:00,
2013-11-15 09:35:00,32.8,25.8,-100.00,South,183,4.0,5.6,75,0.00,,,-99.99,298.0,HOBO +U30 +Weather +,2013-11-15 16:35:00,
2013-11-15 09:40:00,33.4,26.4,-100.00,South,181,3.4,5.6,75,0.00,,,-99.99,306.0,HOBO +U30 +Weather +,2013-11-15 16:40:00,
2013-11-15 09:51:00,34.3,26.8,-100.00,SSW,192,4.0,5.6,73,0.00,,,-99.99,313.0,HOBO +U30 +Weather +,2013-11-15 16:51:00,
2013-11-15 09:55:00,35.2,27.2,-100.00,SSW,198,3.4,5.6,72,0.00,,,-99.99,329.0,HOBO +U30 +Weather +,2013-11-15 16:55:00,
2013-11-15 10:00:00,36.2,27.7,-100.00,South,190,2.9,6.3,70,0.00,,,-99.99,336.0,HOBO +U30 +Weather +,2013-11-15 17:00:00,
2013-11-15 10:05:00,37.5,28.6,-100.00,South,181,2.9,5.6,70,0.00,,,-99.99,342.0,HOBO +U30 +Weather +,2013-11-15 17:05:00,
2013-11-15 10:10:00,38.6,29.2,-100.00,South,184,2.9,5.1,68,0.00,,,-99.99,349.0,HOBO +U30 +Weather +,2013-11-15 17:10:00,
2013-11-15 10:15:00,39.9,29.1,-100.00,South,175,1.8,4.5,64,0.00,,,-99.99,356.0,HOBO +U30 +Weather +,2013-11-15 17:15:00,
2013-11-15 10:20:00,40.5,28.8,-100.00,SW,215,2.2,5.1,62,0.00,,,-99.99,362.0,HOBO +U30 +Weather +,2013-11-15 17:20:00,
2013-11-15 10:25:00,41.5,28.9,-100.00,SW,219,2.2,5.1,60,0.00,,,-99.99,367.0,HOBO +U30 +Weather +,2013-11-15 17:25:00,
2013-11-15 10:30:00,42.7,29.5,-100.00,SSW,202,3.4,8.5,59,0.00,,,-99.99,374.0,HOBO +U30 +Weather +,2013-11-15 17:30:00,
2013-11-15 10:35:00,43.5,28.7,-100.00,SSW,209,2.9,5.1,55,0.00,,,-99.99,381.0,HOBO +U30 +Weather +,2013-11-15 17:35:00,
2013-11-15 10:40:00,44.9,30.5,-100.00,SE,140,0.7,2.9,56,0.00,,,-99.99,386.0,HOBO +U30 +Weather +,2013-11-15 17:40:00,
2013-11-15 10:50:00,46.7,25.1,-100.00,SW,216,2.9,11.9,42,0.00,,,-99.99,392.0,HOBO +U30 +Weather +,2013-11-15 17:50:00,
2013-11-15 10:55:00,48.0,21.7,-100.00,West,260,9.6,18.6,35,0.00,,,-99.99,402.0,HOBO +U30 +Weather +,2013-11-15 17:55:00,
2013-11-15 11:00:00,47.5,21.5,-100.00,West,271,14.1,26.4,35,0.00,,,-99.99,404.0,HOBO +U30 +Weather +,2013-11-15 18:00:00,
2013-11-15 11:05:00,47.8,21.9,-100.00,West,274,13.0,23.0,35,0.00,,,-99.99,408.0,HOBO +U30 +Weather +,2013-11-15 18:05:00,
2013-11-15 11:10:00,48.5,22.2,-100.00,WNW,288,9.6,19.2,35,0.00,,,-99.99,412.0,HOBO +U30 +Weather +,2013-11-15 18:10:00,
2013-11-15 11:15:00,48.2,21.1,-100.00,West,264,8.9,21.5,33,0.00,,,-99.99,414.0,HOBO +U30 +Weather +,2013-11-15 18:15:00,
2013-11-15 11:20:00,48.4,21.8,-100.00,West,260,11.2,21.9,34,0.00,,,-99.99,417.0,HOBO +U30 +Weather +,2013-11-15 18:20:00,
2013-11-15 11:25:00,47.9,20.4,-100.00,WNW,282,15.2,27.1,33,0.00,,,-99.99,419.0,HOBO +U30 +Weather +,2013-11-15 18:25:00,
2013-11-15 11:30:00,47.9,20.2,-100.00,WNW,292,11.9,25.3,33,0.00,,,-99.99,422.0,HOBO +U30 +Weather +,2013-11-15 18:30:00,
2013-11-15 11:35:00,47.7,20.5,-100.00,WNW,292,14.1,23.7,33,0.00,,,-99.99,424.0,HOBO +U30 +Weather +,2013-11-15 18:35:00,
2013-11-15 11:48:00,47.9,20.7,-100.00,WNW,293,12.3,20.8,33,0.00,,,-99.99,426.0,HOBO +U30 +Weather +,2013-11-15 18:48:00,
2013-11-15 11:50:00,48.7,19.4,-100.00,West,279,11.9,20.4,30,0.00,,,-99.99,427.0,HOBO +U30 +Weather +,2013-11-15 18:50:00,
2013-11-15 11:55:00,49.2,19.6,-100.00,WNW,284,9.6,19.7,30,0.00,,,-99.99,428.0,HOBO +U30 +Weather +,2013-11-15 18:55:00,
2013-11-15 12:00:00,49.4,20.0,-100.00,West,279,10.7,23.7,30,0.00,,,-99.99,427.0,HOBO +U30 +Weather +,2013-11-15 19:00:00,
2013-11-15 12:05:00,48.9,19.0,-100.00,West,265,13.0,23.0,30,0.00,,,-99.99,427.0,HOBO +U30 +Weather +,2013-11-15 19:05:00,
2013-11-15 12:10:00,49.3,19.2,-100.00,West,272,12.3,20.4,29,0.00,,,-99.99,426.0,HOBO +U30 +Weather +,2013-11-15 19:10:00,
2013-11-15 12:15:00,49.3,18.8,-100.00,West,268,14.5,27.5,29,0.00,,,-99.99,426.0,HOBO +U30 +Weather +,2013-11-15 19:15:00,
2013-11-15 12:20:00,49.5,18.8,-100.00,West,275,13.4,21.5,29,0.00,,,-99.99,426.0,HOBO +U30 +Weather +,2013-11-15 19:20:00,
2013-11-15 12:25:00,49.8,19.1,-100.00,West,272,12.3,25.3,29,0.00,,,-99.99,423.0,HOBO +U30 +Weather +,2013-11-15 19:25:00,
2013-11-15 12:30:00,49.6,19.3,-100.00,West,265,13.4,26.4,29,0.00,,,-99.99,422.0,HOBO +U30 +Weather +,2013-11-15 19:30:00,
2013-11-15 12:35:00,49.6,18.9,-100.00,WSW,256,12.3,22.6,29,0.00,,,-99.99,419.0,HOBO +U30 +Weather +,2013-11-15 19:35:00,
2013-11-15 12:47:00,49.7,19.0,-100.00,WSW,254,11.2,18.1,29,0.00,,,-99.99,417.0,HOBO +U30 +Weather +,2013-11-15 19:47:00,
2013-11-15 12:50:00,50.2,19.3,-100.00,West,261,12.3,19.7,29,0.00,,,-99.99,412.0,HOBO +U30 +Weather +,2013-11-15 19:50:00,
2013-11-15 12:55:00,50.3,19.5,-100.00,WSW,251,10.7,18.6,29,0.00,,,-99.99,407.0,HOBO +U30 +Weather +,2013-11-15 19:55:00,
2013-11-15 13:00:00,50.4,19.3,-100.00,WSW,247,9.6,18.6,28,0.00,,,-99.99,403.0,HOBO +U30 +Weather +,2013-11-15 20:00:00,
2013-11-15 13:05:00,50.0,18.5,-100.00,West,260,13.0,22.6,28,0.00,,,-99.99,399.0,HOBO +U30 +Weather +,2013-11-15 20:05:00,
2013-11-15 13:10:00,50.8,19.2,-100.00,WSW,251,12.3,23.0,28,0.00,,,-99.99,394.0,HOBO +U30 +Weather +,2013-11-15 20:10:00,
2013-11-15 13:15:00,50.1,18.6,-100.00,WSW,247,15.9,24.2,28,0.00,,,-99.99,389.0,HOBO +U30 +Weather +,2013-11-15 20:15:00,
2013-11-15 13:20:00,50.3,18.9,-100.00,West,261,13.4,21.9,28,0.00,,,-99.99,386.0,HOBO +U30 +Weather +,2013-11-15 20:20:00,
2013-11-15 13:25:00,50.5,18.8,-100.00,West,275,11.2,24.2,28,0.00,,,-99.99,381.0,HOBO +U30 +Weather +,2013-11-15 20:25:00,
2013-11-15 13:30:00,50.6,19.1,-100.00,West,260,11.9,20.8,28,0.00,,,-99.99,374.0,HOBO +U30 +Weather +,2013-11-15 20:30:00,
2013-11-15 13:35:00,50.4,18.6,-100.00,WSW,256,12.3,22.6,28,0.00,,,-99.99,369.0,HOBO +U30 +Weather +,2013-11-15 20:35:00,
2013-11-15 13:45:00,50.6,18.9,-100.00,West,264,13.0,22.6,28,0.00,,,-99.99,362.0,HOBO +U30 +Weather +,2013-11-15 20:45:00,
2013-11-15 13:50:00,51.0,18.8,-100.00,West,277,11.2,19.2,27,0.00,,,-99.99,351.0,HOBO +U30 +Weather +,2013-11-15 20:50:00,
2013-11-15 13:55:00,50.7,18.6,-100.00,West,272,11.9,21.5,27,0.00,,,-99.99,343.0,HOBO +U30 +Weather +,2013-11-15 20:55:00,
2013-11-15 14:00:00,50.9,19.1,-100.00,West,268,11.9,19.7,28,0.00,,,-99.99,336.0,HOBO +U30 +Weather +,2013-11-15 21:00:00,
2013-11-15 14:05:00,50.7,18.9,-100.00,WSW,254,13.0,19.2,28,0.00,,,-99.99,329.0,HOBO +U30 +Weather +,2013-11-15 21:05:00,
2013-11-15 14:10:00,50.8,18.8,-100.00,WSW,256,9.6,17.0,27,0.00,,,-99.99,322.0,HOBO +U30 +Weather +,2013-11-15 21:10:00,
2013-11-15 14:15:00,50.7,18.8,-100.00,WSW,250,11.9,19.2,28,0.00,,,-99.99,313.0,HOBO +U30 +Weather +,2013-11-15 21:15:00,
2013-11-15 14:20:00,51.2,19.0,-100.00,WSW,251,8.5,15.9,27,0.00,,,-99.99,307.0,HOBO +U30 +Weather +,2013-11-15 21:20:00,
2013-11-15 14:25:00,51.1,19.5,-100.00,West,267,11.2,18.6,28,0.00,,,-99.99,301.0,HOBO +U30 +Weather +,2013-11-15 21:25:00,
2013-11-15 14:30:00,51.0,19.2,-100.00,WSW,254,10.1,17.0,28,0.00,,,-99.99,297.0,HOBO +U30 +Weather +,2013-11-15 21:30:00,
2013-11-15 14:44:00,50.8,19.2,-100.00,WSW,256,14.1,21.5,28,0.00,,,-99.99,287.0,HOBO +U30 +Weather +,2013-11-15 21:44:00,
2013-11-15 14:45:00,50.8,18.9,-100.00,West,264,11.9,19.7,28,0.00,,,-99.99,266.0,HOBO +U30 +Weather +,2013-11-15 21:45:00,
2013-11-15 14:50:00,51.3,19.5,-100.00,West,275,8.5,14.1,28,0.00,,,-99.99,253.0,HOBO +U30 +Weather +,2013-11-15 21:50:00,
2013-11-15 14:55:00,50.8,19.3,-100.00,West,265,13.0,23.7,28,0.00,,,-99.99,242.0,HOBO +U30 +Weather +,2013-11-15 21:55:00,
2013-11-15 15:00:00,50.7,19.3,-100.00,WSW,257,12.3,20.8,28,0.00,,,-99.99,233.0,HOBO +U30 +Weather +,2013-11-15 22:00:00,
2013-11-15 15:05:00,50.5,19.2,-100.00,WSW,251,13.0,20.4,28,0.00,,,-99.99,223.0,HOBO +U30 +Weather +,2013-11-15 22:05:00,
2013-11-15 15:10:00,50.9,19.4,-100.00,West,263,10.1,18.6,28,0.00,,,-99.99,212.0,HOBO +U30 +Weather +,2013-11-15 22:10:00,
2013-11-15 15:15:00,50.8,19.3,-100.00,West,261,8.9,16.3,28,0.00,,,-99.99,201.0,HOBO +U30 +Weather +,2013-11-15 22:15:00,
2013-11-15 15:20:00,50.6,19.3,-100.00,West,265,12.3,19.7,28,0.00,,,-99.99,191.0,HOBO +U30 +Weather +,2013-11-15 22:20:00,
2013-11-15 15:25:00,50.7,19.1,-100.00,West,261,8.9,15.2,28,0.00,,,-99.99,182.0,HOBO +U30 +Weather +,2013-11-15 22:25:00,
2013-11-15 15:30:00,50.5,18.8,-100.00,West,260,11.2,21.5,28,0.00,,,-99.99,173.0,HOBO +U30 +Weather +,2013-11-15 22:30:00,
2013-11-15 15:42:00,50.4,19.2,-100.00,WSW,254,12.3,19.2,28,0.00,,,-99.99,161.0,HOBO +U30 +Weather +,2013-11-15 22:42:00,
2013-11-15 15:45:00,50.3,19.4,-100.00,West,263,10.7,19.7,29,0.00,,,-99.99,134.0,HOBO +U30 +Weather +,2013-11-15 22:45:00,
2013-11-15 15:50:00,50.0,19.0,-100.00,West,264,9.6,17.0,29,0.00,,,-99.99,109.0,HOBO +U30 +Weather +,2013-11-15 22:50:00,
2013-11-15 15:55:00,49.7,19.0,-100.00,West,271,11.2,18.1,29,0.00,,,-99.99,76.0,HOBO +U30 +Weather +,2013-11-15 22:55:00,
2013-11-15 16:00:00,49.6,19.2,-100.00,West,274,8.9,15.9,29,0.00,,,-99.99,71.0,HOBO +U30 +Weather +,2013-11-15 23:00:00,
2013-11-15 16:05:00,48.9,19.1,-100.00,West,275,8.9,14.5,30,0.00,,,-99.99,18.0,HOBO +U30 +Weather +,2013-11-15 23:05:00,
2013-11-15 16:10:00,48.7,19.4,-100.00,WNW,282,8.9,16.3,31,0.00,,,-99.99,16.0,HOBO +U30 +Weather +,2013-11-15 23:10:00,
2013-11-15 16:15:00,48.5,19.5,-100.00,West,272,6.7,12.3,31,0.00,,,-99.99,14.0,HOBO +U30 +Weather +,2013-11-15 23:15:00,
2013-11-15 16:20:00,48.3,19.7,-100.00,West,274,3.4,8.5,31,0.00,,,-99.99,18.0,HOBO +U30 +Weather +,2013-11-15 23:20:00,
2013-11-15 16:25:00,48.3,19.8,-100.00,West,277,5.1,10.1,32,0.00,,,-99.99,19.0,HOBO +U30 +Weather +,2013-11-15 23:25:00,
2013-11-15 16:30:00,47.9,19.8,-100.00,WNW,286,4.0,8.9,32,0.00,,,-99.99,11.0,HOBO +U30 +Weather +,2013-11-15 23:30:00,
2013-11-15 16:40:00,47.6,19.8,-100.00,WNW,284,5.1,8.9,32,0.00,,,-99.99,6.0,HOBO +U30 +Weather +,2013-11-15 23:40:00,
2013-11-15 16:45:00,46.9,19.8,-100.00,WNW,286,3.4,6.3,33,0.00,,,-99.99,2.0,HOBO +U30 +Weather +,2013-11-15 23:45:00,
2013-11-15 16:50:00,47.0,19.9,-100.00,West,272,3.4,7.8,33,0.00,,,-99.99,1.0,HOBO +U30 +Weather +,2013-11-15 23:50:00,
2013-11-15 16:55:00,46.6,20.0,-100.00,WSW,256,0.0,1.8,34,0.00,,,-99.99,1.0,HOBO +U30 +Weather +,2013-11-15 23:55:00,
2013-11-15 17:00:00,46.6,19.8,-100.00,WSW,253,1.8,3.4,34,0.00,,,-99.99,1.0,HOBO +U30 +Weather +,2013-11-16 00:00:00,
2013-11-15 17:05:00,46.5,19.7,-100.00,WSW,253,0.7,2.2,34,0.00,,,-99.99,1.0,HOBO +U30 +Weather +,2013-11-16 00:05:00,
2013-11-15 17:10:00,46.4,19.9,-100.00,WSW,253,0.7,2.2,34,0.00,,,-99.99,1.0,HOBO +U30 +Weather +,2013-11-16 00:10:00,
2013-11-15 17:15:00,46.3,19.6,-100.00,WSW,253,0.0,1.1,34,0.00,,,-99.99,1.0,HOBO +U30 +Weather +,2013-11-16 00:15:00,
2013-11-15 17:20:00,46.3,19.7,-100.00,WSW,253,0.0,1.8,34,0.00,,,-99.99,1.0,HOBO +U30 +Weather +,2013-11-16 00:20:00,
2013-11-15 17:25:00,46.3,20.2,-100.00,WSW,253,0.0,1.8,34,0.00,,,-99.99,1.0,HOBO +U30 +Weather +,2013-11-16 00:25:00,
2013-11-15 17:39:00,45.8,20.1,-100.00,WSW,253,0.0,0.0,35,0.00,,,-99.99,1.0,HOBO +U30 +Weather +,2013-11-16 00:39:00,
2013-11-15 17:40:00,45.4,20.2,-100.00,South,175,0.0,1.8,36,0.00,,,-99.99,1.0,HOBO +U30 +Weather +,2013-11-16 00:40:00,
2013-11-15 17:45:00,45.1,20.4,-100.00,SE,129,0.0,1.1,37,0.00,,,-99.99,1.0,HOBO +U30 +Weather +,2013-11-16 00:45:00,
2013-11-15 17:50:00,45.0,19.8,-100.00,SE,129,0.0,1.1,36,0.00,,,-99.99,1.0,HOBO +U30 +Weather +,2013-11-16 00:50:00,
2013-11-15 17:55:00,45.2,20.3,-100.00,NNE,14,0.7,4.0,36,0.00,,,-99.99,1.0,HOBO +U30 +Weather +,2013-11-16 00:55:00,
2013-11-15 18:00:00,45.1,20.0,-100.00,WNW,291,2.9,7.4,36,0.00,,,-99.99,1.0,HOBO +U30 +Weather +,2013-11-16 01:00:00,
2013-11-15 18:05:00,44.9,20.1,-100.00,West,281,2.9,6.3,36,0.00,,,-99.99,1.0,HOBO +U30 +Weather +,2013-11-16 01:05:00,
2013-11-15 18:10:00,45.3,20.0,-100.00,West,278,3.4,6.7,36,0.00,,,-99.99,1.0,HOBO +U30 +Weather +,2013-11-16 01:10:00,
2013-11-15 18:15:00,44.4,20.5,-100.00,WNW,288,1.8,3.4,38,0.00,,,-99.99,1.0,HOBO +U30 +Weather +,2013-11-16 01:15:00,
2013-11-15 18:20:00,45.1,20.2,-100.00,WNW,296,1.8,6.7,36,0.00,,,-99.99,1.0,HOBO +U30 +Weather +,2013-11-16 01:20:00,
2013-11-15 18:25:00,45.1,20.0,-100.00,West,274,2.2,5.6,36,0.00,,,-99.99,1.0,HOBO +U30 +Weather +,2013-11-16 01:25:00,
2013-11-15 18:37:00,45.3,19.7,-100.00,West,264,2.2,5.6,35,0.00,,,-99.99,1.0,HOBO +U30 +Weather +,2013-11-16 01:37:00,
2013-11-15 18:40:00,45.5,19.9,-100.00,WSW,250,3.4,6.3,35,0.00,,,-99.99,1.0,HOBO +U30 +Weather +,2013-11-16 01:40:00,
2013-11-15 18:45:00,44.9,19.9,-100.00,SW,230,2.2,5.6,36,0.00,,,-99.99,1.0,HOBO +U30 +Weather +,2013-11-16 01:45:00,
2013-11-15 18:50:00,44.6,20.4,-100.00,SW,229,2.9,7.8,37,0.00,,,-99.99,1.0,HOBO +U30 +Weather +,2013-11-16 01:50:00,
2013-11-15 18:55:00,43.1,20.5,-100.00,SSW,195,6.3,7.8,40,0.00,,,-99.99,1.0,HOBO +U30 +Weather +,2013-11-16 01:55:00,
2013-11-15 19:00:00,42.7,20.8,-100.00,SSW,197,5.6,7.4,41,0.00,,,-99.99,1.0,HOBO +U30 +Weather +,2013-11-16 02:00:00,
2013-11-15 19:05:00,42.1,21.2,-100.00,SSW,195,5.1,7.4,43,0.00,,,-99.99,1.0,HOBO +U30 +Weather +,2013-11-16 02:05:00,
2013-11-15 19:10:00,42.1,21.2,-100.00,SSW,197,4.5,6.3,43,0.00,,,-99.99,1.0,HOBO +U30 +Weather +,2013-11-16 02:10:00,
2013-11-15 19:15:00,41.9,21.6,-100.00,SSW,201,5.1,6.7,44,0.00,,,-99.99,1.0,HOBO +U30 +Weather +,2013-11-16 02:15:00,
2013-11-15 19:20:00,41.7,21.6,-100.00,SSW,195,5.1,8.5,44,0.00,,,-99.99,1.0,HOBO +U30 +Weather +,2013-11-16 02:20:00,
2013-11-15 19:25:00,41.5,21.6,-100.00,SSW,197,5.6,9.6,44,0.00,,,-99.99,1.0,HOBO +U30 +Weather +,2013-11-16 02:25:00,
2013-11-15 19:35:00,42.0,21.4,-100.00,SSW,199,4.0,5.1,43,0.00,,,-99.99,1.0,HOBO +U30 +Weather +,2013-11-16 02:35:00,
2013-11-15 19:36:00,42.0,21.1,-100.00,SSW,205,4.5,6.3,43,0.00,,,-99.99,1.0,HOBO +U30 +Weather +,2013-11-16 02:36:00,
2013-11-15 19:40:00,42.3,21.0,-100.00,SSW,212,3.4,5.6,42,0.00,,,-99.99,1.0,HOBO +U30 +Weather +,2013-11-16 02:40:00,
2013-11-15 19:45:00,42.5,20.6,-100.00,SW,225,2.2,4.5,41,0.00,,,-99.99,1.0,HOBO +U30 +Weather +,2013-11-16 02:45:00,
2013-11-15 19:50:00,42.2,21.0,-100.00,SW,215,3.4,5.6,42,0.00,,,-99.99,1.0,HOBO +U30 +Weather +,2013-11-16 02:50:00,
2013-11-15 19:55:00,42.1,20.8,-100.00,SSW,208,4.5,6.7,42,0.00,,,-99.99,1.0,HOBO +U30 +Weather +,2013-11-16 02:55:00,
2013-11-15 20:00:00,41.6,21.1,-100.00,SSW,201,4.5,6.3,43,0.00,,,-99.99,1.0,HOBO +U30 +Weather +,2013-11-16 03:00:00,
2013-11-15 20:05:00,41.4,21.5,-100.00,SSW,197,2.2,5.1,44,0.00,,,-99.99,1.0,HOBO +U30 +Weather +,2013-11-16 03:05:00,
2013-11-15 20:10:00,40.7,21.4,-100.00,South,175,3.4,5.1,45,0.00,,,-99.99,1.0,HOBO +U30 +Weather +,2013-11-16 03:10:00,
2013-11-15 20:15:00,40.2,22.2,-100.00,SSE,161,1.8,4.0,48,0.00,,,-99.99,1.0,HOBO +U30 +Weather +,2013-11-16 03:15:00,
2013-11-15 20:20:00,40.4,22.1,-100.00,South,174,1.8,4.5,47,0.00,,,-99.99,1.0,HOBO +U30 +Weather +,2013-11-16 03:20:00,
2013-11-15 20:34:00,40.2,22.1,-100.00,SSE,166,2.9,5.1,48,0.00,,,-99.99,1.0,HOBO +U30 +Weather +,2013-11-16 03:34:00,
2013-11-15 20:35:00,41.3,21.8,-100.00,West,275,0.0,2.2,45,0.00,,,-99.99,1.0,HOBO +U30 +Weather +,2013-11-16 03:35:00,
2013-11-15 20:40:00,41.9,21.4,-100.00,SSW,197,2.2,5.6,43,0.00,,,-99.99,1.0,HOBO +U30 +Weather +,2013-11-16 03:40:00,
2013-11-15 20:45:00,41.6,21.6,-100.00,South,174,0.7,2.2,44,0.00,,,-99.99,1.0,HOBO +U30 +Weather +,2013-11-16 03:45:00,
2013-11-15 20:50:00,41.4,21.5,-100.00,South,174,0.0,0.0,44,0.00,,,-99.99,1.0,HOBO +U30 +Weather +,2013-11-16 03:50:00,
2013-11-15 20:55:00,41.5,21.2,-100.00,South,174,0.0,1.8,44,0.00,,,-99.99,1.0,HOBO +U30 +Weather +,2013-11-16 03:55:00,
2013-11-15 21:00:00,41.6,21.4,-100.00,South,174,0.0,1.1,44,0.00,,,-99.99,1.0,HOBO +U30 +Weather +,2013-11-16 04:00:00,
2013-11-15 21:05:00,41.4,21.6,-100.00,South,171,0.7,2.9,44,0.00,,,-99.99,1.0,HOBO +U30 +Weather +,2013-11-16 04:05:00,
2013-11-15 21:10:00,41.4,21.3,-100.00,SSE,157,2.9,4.0,44,0.00,,,-99.99,1.0,HOBO +U30 +Weather +,2013-11-16 04:10:00,
2013-11-15 21:15:00,41.4,21.2,-100.00,SSE,157,1.8,3.4,44,0.00,,,-99.99,1.0,HOBO +U30 +Weather +,2013-11-16 04:15:00,
2013-11-15 21:20:00,41.4,21.5,-100.00,SSE,157,0.7,2.2,44,0.00,,,-99.99,1.0,HOBO +U30 +Weather +,2013-11-16 04:20:00,
2013-11-15 21:32:00,41.2,21.4,-100.00,SSE,168,1.8,3.4,44,0.00,,,-99.99,1.0,HOBO +U30 +Weather +,2013-11-16 04:32:00,
2013-11-15 21:35:00,40.6,21.6,-100.00,SSE,159,3.4,4.5,46,0.00,,,-99.99,1.0,HOBO +U30 +Weather +,2013-11-16 04:35:00,
2013-11-15 21:40:00,40.9,22.0,-100.00,South,188,1.1,4.0,46,0.00,,,-99.99,1.0,HOBO +U30 +Weather +,2013-11-16 04:40:00,
2013-11-15 21:45:00,40.9,21.8,-100.00,South,188,0.0,2.2,46,0.00,,,-99.99,1.0,HOBO +U30 +Weather +,2013-11-16 04:45:00,
2013-11-15 21:50:00,39.6,22.7,-100.00,SSE,161,3.4,6.3,50,0.00,,,-99.99,1.0,HOBO +U30 +Weather +,2013-11-16 04:50:00,
2013-11-15 21:55:00,40.2,22.2,-100.00,SSE,166,4.0,6.7,48,0.00,,,-99.99,1.0,HOBO +U30 +Weather +,2013-11-16 04:55:00,
2013-11-15 22:00:00,39.1,23.0,-100.00,SSE,164,4.0,6.3,51,0.00,,,-99.99,1.0,HOBO +U30 +Weather +,2013-11-16 05:00:00,
2013-11-15 22:05:00,39.2,22.7,-100.00,SSE,160,4.5,6.3,51,0.00,,,-99.99,1.0,HOBO +U30 +Weather +,2013-11-16 05:05:00,
2013-11-15 22:10:00,39.5,23.1,-100.00,SSE,167,0.7,3.4,51,0.00,,,-99.99,1.0,HOBO +U30 +Weather +,2013-11-16 05:10:00,
2013-11-15 22:15:00,39.0,23.1,-100.00,SSW,192,0.7,1.8,52,0.00,,,-99.99,1.0,HOBO +U30 +Weather +,2013-11-16 05:15:00,
2013-11-15 22:20:00,39.1,23.0,-100.00,SW,216,0.0,1.1,52,0.00,,,-99.99,1.0,HOBO +U30 +Weather +,2013-11-16 05:20:00,
2013-11-15 22:25:00,39.4,23.3,-100.00,SW,216,0.0,2.2,52,0.00,,,-99.99,1.0,HOBO +U30 +Weather +,2013-11-16 05:25:00,
2013-11-15 22:30:00,39.4,23.6,-100.00,SSW,212,2.2,5.6,52,0.00,,,-99.99,1.0,HOBO +U30 +Weather +,2013-11-16 05:30:00,
2013-11-15 22:35:00,38.5,23.9,-100.00,SSW,201,4.5,7.4,55,0.00,,,-99.99,1.0,HOBO +U30 +Weather +,2013-11-16 05:35:00,
2013-11-15 22:40:00,38.4,23.7,-100.00,SSW,206,5.6,8.9,55,0.00,,,-99.99,1.0,HOBO +U30 +Weather +,2013-11-16 05:40:00,
2013-11-15 22:45:00,38.4,23.5,-100.00,SSW,213,4.5,7.8,54,0.00,,,-99.99,1.0,HOBO +U30 +Weather +,2013-11-16 05:45:00,
2013-11-15 22:50:00,38.6,23.5,-100.00,SW,229,4.0,7.4,54,0.00,,,-99.99,1.0,HOBO +U30 +Weather +,2013-11-16 05:50:00,
2013-11-15 22:55:00,38.6,23.3,-100.00,WSW,254,2.2,5.1,53,0.00,,,-99.99,1.0,HOBO +U30 +Weather +,2013-11-16 05:55:00,
2013-11-15 23:00:00,38.2,23.2,-100.00,West,263,0.7,2.9,54,0.00,,,-99.99,1.0,HOBO +U30 +Weather +,2013-11-16 06:00:00,
2013-11-15 23:05:00,37.8,23.5,-100.00,West,265,0.7,2.9,55,0.00,,,-99.99,1.0,HOBO +U30 +Weather +,2013-11-16 06:05:00,
2013-11-15 23:10:00,38.2,23.3,-100.00,WSW,258,1.8,4.5,54,0.00,,,-99.99,1.0,HOBO +U30 +Weather +,2013-11-16 06:10:00,
2013-11-15 23:15:00,38.9,23.5,-100.00,WSW,239,1.8,3.4,53,0.00,,,-99.99,1.0,HOBO +U30 +Weather +,2013-11-16 06:15:00,
2013-11-15 23:20:00,38.7,23.4,-100.00,SW,220,1.1,2.9,53,0.00,,,-99.99,1.0,HOBO +U30 +Weather +,2013-11-16 06:20:00,
2013-11-15 23:30:00,38.2,23.2,-100.00,South,171,2.2,3.4,54,0.00,,,-99.99,1.0,HOBO +U30 +Weather +,2013-11-16 06:30:00,
2013-11-15 23:35:00,39.2,23.1,-100.00,South,185,1.1,4.0,52,0.00,,,-99.99,1.0,HOBO +U30 +Weather +,2013-11-16 06:35:00,
2013-11-15 23:40:00,38.8,23.6,-100.00,SSW,192,0.0,2.2,54,0.00,,,-99.99,1.0,HOBO +U30 +Weather +,2013-11-16 06:40:00,
2013-11-15 23:45:00,38.6,23.1,-100.00,South,183,4.0,5.1,53,0.00,,,-99.99,1.0,HOBO +U30 +Weather +,2013-11-16 06:45:00,
2013-11-15 23:50:00,38.6,23.1,-100.00,South,177,3.4,4.5,53,0.00,,,-99.99,1.0,HOBO +U30 +Weather +,2013-11-16 06:50:00,
2013-11-15 23:55:00,39.1,22.8,-100.00,South,184,3.4,4.5,51,0.00,,,-99.99,1.0,HOBO +U30 +Weather +,2013-11-16 06:55:00,